Weather History for Big Rapids, MI

Change the Weather History Date:

Monday, February 20, 2012

  Actual Average Record
Temperature  
Mean Temperature 24 °F -  
Max Temperature 38 °F 36 °F 59 °F (1983)
Min Temperature 11 °F 15 °F -18 °F (2008)
Degree Days  
Heating Degree Days 40    
Moisture  
Dew Point 20 °F    
Average Humidity 81    
Maximum Humidity 100    
Minimum Humidity 53    
Precipitation  
Precipitation 0.00 in - - ()
Sea Level Pressure  
Sea Level Pressure 30.21 in    
Wind  
Wind Speed 2 mph (SSE)    
Max Wind Speed 9 mph    
Max Gust Speed -    
Visibility 10 miles    
Events      
Averages and records for this station are not official NWS values.
T = Trace of Precipitation, MM = Missing Value Source: NWS Daily Summary

Daily Weather History Graph

Daily Weather History Graph

Search for Another Location

Airport:

Trip Planner

Search our weather history database for the weather conditions in past years. The results will help you decide how hot, cold, wet, or windy it might be!

Date:

Astronomy

Feb. 20, 2012 Rise Set
Actual Time 7:33 AM EST 6:18 PM EST
Civil Twilight 7:04 AM EST 6:47 PM EST
Nautical Twilight 6:31 AM EST 7:20 PM EST
Astronomical Twilight 5:58 AM EST 7:54 PM EST
Moon 6:31 AM EST (2/20) 5:21 PM EST (2/20)
Length of Visible Light 11h 42m
Length of Day
10h 44m
Waning Crescent, 2% of the Moon is Illuminated
Feb 20
Waning Crescent
Feb 21
New
Feb 29
First Quarter
Mar 8
Full
Mar 14
Last Quarter

Hourly Weather History & Observations

Time (EST) Temp. Windchill Dew Point Humidity Pressure Visibility Wind Dir Wind Speed Gust Speed Precip Events Conditions
12:14 AM 20.8 °F - 20.8 °F 100% 30.17 in 10.0 mi Calm Calm - N/A   Clear
12:34 AM 19.2 °F - 19.2 °F 100% 30.17 in 10.0 mi Calm Calm - N/A   Clear
12:55 AM 17.8 °F - 17.8 °F 100% 30.18 in 10.0 mi Calm Calm - N/A   Clear
1:14 AM 18.1 °F - 18.1 °F 100% 30.19 in 10.0 mi Calm Calm - N/A   Clear
1:34 AM 17.6 °F - 17.6 °F 100% 30.19 in 10.0 mi Calm Calm - N/A   Clear
2:14 AM 17.1 °F - 17.1 °F 100% 30.19 in 10.0 mi Calm Calm - N/A   Clear
2:34 AM 16.7 °F - 16.7 °F 100% 30.20 in 10.0 mi Calm Calm - N/A   Clear
2:54 AM 15.6 °F - 15.4 °F 99% 30.21 in 10.0 mi Calm Calm - N/A   Clear
3:14 AM 15.4 °F - 15.1 °F 98% 30.21 in 10.0 mi Calm Calm - N/A   Clear
3:34 AM 15.3 °F - 15.3 °F 100% 30.21 in 10.0 mi Calm Calm - N/A   Clear
3:54 AM 16.0 °F - 15.6 °F 98% 30.21 in 10.0 mi Calm Calm - N/A   Clear
4:14 AM 14.5 °F - 14.0 °F 98% 30.21 in 10.0 mi Calm Calm - N/A   Clear
4:34 AM 13.5 °F - 13.1 °F 98% 30.22 in 10.0 mi Calm Calm - N/A   Clear
4:54 AM 14.0 °F - 13.8 °F 99% 30.22 in 10.0 mi Calm Calm - N/A   Clear
5:14 AM 14.2 °F - 13.8 °F 98% 30.23 in 10.0 mi Calm Calm - N/A   Clear
5:34 AM 13.8 °F - 13.5 °F 98% 30.23 in 10.0 mi Calm Calm - N/A   Clear
5:54 AM 12.7 °F - 11.8 °F 96% 30.24 in 10.0 mi Calm Calm - N/A   Clear
6:14 AM 12.2 °F - 11.3 °F 96% 30.24 in 10.0 mi Calm Calm - N/A   Clear
6:34 AM 12.2 °F - 11.3 °F 96% 30.25 in 10.0 mi Calm Calm - N/A   Clear
6:54 AM 13.1 °F - 12.7 °F 98% 30.25 in 10.0 mi Calm Calm - N/A   Clear
7:14 AM 12.2 °F - 11.3 °F 96% 30.26 in 10.0 mi Calm Calm - N/A   Clear
7:34 AM 12.0 °F - 11.1 °F 96% 30.26 in 10.0 mi Calm Calm - N/A   Clear
7:55 AM 11.8 °F - 10.9 °F 96% 30.28 in 10.0 mi Calm Calm - N/A   Clear
8:14 AM 12.9 °F - 12.4 °F 98% 30.29 in 10.0 mi Calm Calm - N/A   Clear
8:34 AM 14.5 °F - 14.0 °F 98% 30.29 in 10.0 mi Calm Calm - N/A   Clear
8:54 AM 16.5 °F - 16.2 °F 98% 30.29 in 10.0 mi Calm Calm - N/A   Clear
9:14 AM 18.3 °F - 17.8 °F 98% 30.29 in 7.0 mi Calm Calm - N/A   Clear
9:34 AM 21.0 °F - 20.1 °F 96% 30.29 in 7.0 mi Calm Calm - N/A   Clear
9:54 AM 23.7 °F - 21.6 °F 91% 30.30 in 10.0 mi Calm Calm - N/A   Clear
10:14 AM 27.0 °F - 23.7 °F 88% 30.29 in 10.0 mi Calm Calm - N/A   Clear
10:35 AM 29.8 °F 26.3 °F 25.3 °F 83% 30.29 in 10.0 mi SE 3.5 mph - N/A   Clear
10:54 AM 31.6 °F 26.0 °F 26.6 °F 82% 30.29 in 10.0 mi SSE 5.8 mph - N/A   Clear
11:14 AM 32.0 °F 26.4 °F 26.8 °F 81% 30.28 in 10.0 mi SSE 5.8 mph - N/A   Clear
11:35 AM 33.1 °F 27.7 °F 27.0 °F 78% 30.28 in 10.0 mi SSE 5.8 mph - N/A   Clear
11:54 AM 33.8 °F 28.6 °F 26.8 °F 75% 30.27 in 10.0 mi SSE 5.8 mph - N/A   Clear
12:14 PM 34.7 °F 28.8 °F 24.4 °F 66% 30.26 in 10.0 mi South 6.9 mph - N/A   Clear
12:35 PM 35.1 °F 32.2 °F 25.2 °F 67% 30.26 in 10.0 mi South 3.5 mph - N/A   Clear
12:54 PM 35.8 °F 31.9 °F 24.8 °F 64% 30.26 in 10.0 mi South 4.6 mph - N/A   Clear
1:14 PM 36.7 °F 31.2 °F 25.2 °F 63% 30.25 in 10.0 mi South 6.9 mph - N/A   Clear
1:35 PM 36.5 °F 30.3 °F 25.3 °F 64% 30.24 in 10.0 mi SSW 8.1 mph - N/A   Clear
2:14 PM 37.4 °F 32.8 °F 24.1 °F 59% 30.23 in 10.0 mi South 5.8 mph - N/A   Clear
2:34 PM 38.1 °F 32.9 °F 23.7 °F 56% 30.23 in 10.0 mi SSW 6.9 mph - N/A   Clear
2:54 PM 37.9 °F 33.5 °F 23.5 °F 56% 30.23 in 10.0 mi South 5.8 mph - N/A   Clear
3:14 PM 37.8 °F 31.8 °F 21.9 °F 53% 30.22 in 10.0 mi SSW 8.1 mph - N/A   Clear
3:35 PM 37.4 °F 31.4 °F 21.9 °F 54% 30.21 in 10.0 mi South 8.1 mph - N/A   Clear
4:14 PM 37.6 °F 32.3 °F 23.4 °F 57% 30.18 in 10.0 mi South 6.9 mph - N/A   Clear
4:34 PM 37.9 °F 32.1 °F 23.0 °F 55% 30.19 in 10.0 mi South 8.1 mph - N/A   Clear
4:54 PM 38.1 °F 32.3 °F 23.9 °F 57% 30.17 in 10.0 mi SE 8.1 mph - N/A   Clear
5:14 PM 37.4 °F 30.8 °F 23.5 °F 57% 30.16 in 10.0 mi South 9.2 mph - N/A   Clear
5:34 PM 37.0 °F 30.4 °F 22.8 °F 56% 30.15 in 10.0 mi SE 9.2 mph - N/A   Clear
5:54 PM 35.8 °F 28.8 °F 23.2 °F 60% 30.14 in 10.0 mi SE 9.2 mph - N/A   Clear
6:14 PM 34.9 °F 29.0 °F 23.7 °F 64% 30.15 in 10.0 mi SE 6.9 mph - N/A   Clear
6:34 PM 34.0 °F 29.8 °F 23.7 °F 66% 30.15 in 10.0 mi ESE 4.6 mph - N/A   Clear
6:54 PM 32.9 °F 27.5 °F 23.4 °F 68% 30.15 in 10.0 mi SE 5.8 mph - N/A   Clear
7:34 PM 32.0 °F 27.5 °F 23.2 °F 70% 30.14 in 10.0 mi ESE 4.6 mph - N/A   Clear
7:54 PM 31.8 °F 28.5 °F 23.4 °F 71% 30.14 in 10.0 mi SE 3.5 mph - N/A   Clear
8:14 PM 31.3 °F - 23.0 °F 71% 30.13 in 10.0 mi Calm Calm - N/A   Clear
8:34 PM 30.2 °F - 23.0 °F 75% 30.12 in 10.0 mi Calm Calm - N/A   Clear
8:54 PM 30.7 °F 27.3 °F 23.4 °F 74% 30.11 in 10.0 mi SE 3.5 mph - N/A   Clear
9:14 PM 31.6 °F 26.0 °F 23.7 °F 73% 30.10 in 10.0 mi SE 5.8 mph - N/A   Clear
9:34 PM 32.0 °F 24.8 °F 23.9 °F 72% 30.09 in 10.0 mi SE 8.1 mph - N/A   Clear
10:14 PM 31.8 °F 23.9 °F 24.1 °F 73% 30.07 in 10.0 mi SSE 9.2 mph - N/A   Clear
10:34 PM 31.8 °F 23.9 °F 24.4 °F 74% 30.06 in 10.0 mi SSE 9.2 mph - N/A   Clear
10:54 PM 31.6 °F 24.4 °F 24.6 °F 75% 30.05 in 10.0 mi SSE 8.1 mph - N/A   Clear
11:14 PM 31.5 °F 23.5 °F 24.4 °F 75% 30.04 in 10.0 mi SSE 9.2 mph - N/A   Clear
11:34 PM 31.3 °F 24.7 °F 24.4 °F 76% 30.02 in 10.0 mi SSE 6.9 mph - N/A   Clear
11:54 PM 31.1 °F 23.7 °F 24.3 °F 76% 30.00 in 10.0 mi SSE 8.1 mph - N/A   Clear